{"data":{"norad_id":52471,"intl_designator":"2022-049W","name":"STARLINK-3862","alt_names":[],"object_type":"PAYLOAD","status":"ACTIVE","operator":null,"country":"US","launch_date":"2022-05-06","launch_site_code":"AFETR","launch_vehicle":null,"mission":null,"orbit_class":"UNKNOWN","rcs_meters":null,"size_class":null,"mass_kg":null,"dimensions":null,"purposes":["comms"],"wikipedia_slug":null,"has_3d_model":false,"image_url":null,"decayed_at":null,"tle_current":{"epoch":"2026-05-25T02:18:11.485728Z","epoch_age_seconds":64069,"freshness":"FRESH","line1":"1 52471U 22049W   26145.09596627 -.00001365  00000+0 -67701-4 0  9999","line2":"2 52471  53.2126  76.1295 0001590  89.9932 270.1242 15.08843207223783","mean_motion":15.08843207,"eccentricity":0.000159,"inclination_deg":53.2126,"raan_deg":76.1295,"arg_perigee_deg":89.9932,"mean_anomaly_deg":270.1242,"bstar":-6.7701e-5,"rev_number":22378,"period_min":95.437351828168,"perigee_km":538.6336450422,"apogee_km":540.83352788869,"semimajor_km":6917.8705864654,"source":"CELESTRAK","updated_at":"2026-05-25T13:38:17.153401Z"}}}